Weather History for KRIL - July, 2013

Change the Weather History Date:

Sunday, July 14, 2013

  Actual Average Record
Temperature  
Mean Temperature 77 °F 73 °F  
Max Temperature 92 °F 91 °F 102 °F (1934)
Min Temperature 62 °F 55 °F 37 °F (1962)
Degree Days  
Heating Degree Days 0 0  
Month to date heating degree days 0 0  
Since 1 June heating degree days 13 59  
Since 1 July heating degree days 0 0  
Cooling Degree Days 12 8  
Month to date cooling degree days 160 100  
Year to date cooling degree days 318 202  
Since 1 June cooling degree days 311 195  
Growing Degree Days 26 (Base 50)    
Moisture  
Dew Point 53 °F    
Average Humidity 57    
Maximum Humidity 90    
Minimum Humidity 24    
Precipitation  
Precipitation 0.10 in 0.03 in 0.23 in (1912)
Month to date precipitation 0.37 0.35  
Year to date precipitation 4.36 6.79  
Sea Level Pressure  
Sea Level Pressure 30.00 in    
Wind  
Wind Speed 5 mph (ESE)    
Max Wind Speed 26 mph    
Max Gust Speed 33 mph    
Visibility 10 miles    
Events Rain , Thunderstorm    
T = Trace of Precipitation, MM = Missing Value Source: NWS Daily Summary

Daily Weather History Graph

Daily Weather History Graph

Search for Another Location

Airport or City:

Trip Planner

Search our weather history database for the weather conditions in past years. The results will help you decide how hot, cold, wet, or windy it might be!

Date:

Astronomy

Jul. 14, 2013 Rise Set
Actual Time 5:55 AM MDT 8:37 PM MDT
Civil Twilight 5:23 AM MDT 9:09 PM MDT
Nautical Twilight 4:44 AM MDT 9:48 PM MDT
Astronomical Twilight 3:59 AM MDT 10:33 PM MDT
Moon 12:13 PM MDT (7/14) 11:53 PM MDT (7/14)
Length of Visible Light 15h 45m
Length of Day
14h 42m
Waxing Crescent, 35% of the Moon is Illuminated
Jul 14
Waxing Crescent
Jul 15
First Quarter
Jul 22
Full
Jul 29
Last Quarter
Aug 6
New

Hourly Weather History & Observations

Time (MDT) Temp. Heat Index Dew Point Humidity Pressure Visibility Wind Dir Wind Speed Gust Speed Precip Events Conditions
12:53 AM 68.0 °F - 53.1 °F 59% 29.95 in 10.0 mi WSW 4.6 mph - N/A   Mostly Cloudy
1:53 AM 66.9 °F - 53.1 °F 61% 29.93 in 10.0 mi SSE 8.1 mph - N/A   Mostly Cloudy
2:53 AM 66.0 °F - 53.1 °F 63% 29.95 in 10.0 mi ENE 3.5 mph - N/A   Mostly Cloudy
3:53 AM 66.0 °F - 53.1 °F 63% 29.98 in 10.0 mi ENE 3.5 mph - N/A   Overcast
4:53 AM 66.9 °F - 55.9 °F 68% 30.01 in 9.0 mi Variable 4.6 mph - 0.01 in Rain Light Rain
5:53 AM 64.0 °F - 57.9 °F 80% 30.05 in 10.0 mi SE 5.8 mph - 0.00 in   Overcast
6:53 AM 62.1 °F - 59.0 °F 90% 30.06 in 10.0 mi SE 3.5 mph - 0.02 in   Overcast
7:53 AM 64.0 °F - 59.0 °F 84% 30.04 in 10.0 mi NNE 4.6 mph - N/A   Clear
8:53 AM 66.9 °F - 57.9 °F 73% 30.05 in 10.0 mi Calm Calm - N/A   Clear
9:53 AM 71.1 °F - 57.9 °F 63% 30.03 in 10.0 mi Calm Calm - N/A   Clear
10:53 AM 75.0 °F - 55.0 °F 50% 30.01 in 10.0 mi ENE 4.6 mph - N/A   Clear
11:53 AM 80.1 °F 80.1 °F 55.0 °F 42% 29.99 in 10.0 mi SE 4.6 mph - N/A   Clear
12:43 PM 84.2 °F - 50.0 °F 30% 30.18 in 10.0 mi Variable 3.5 mph - N/A Thunderstorm Clear
12:53 PM 84.0 °F - 51.1 °F 32% 29.95 in 10.0 mi Calm Calm - N/A Thunderstorm Clear
1:00 PM 84.2 °F - 51.8 °F 33% 30.17 in 10.0 mi West 6.9 mph - N/A   Clear
1:53 PM 86.0 °F - 51.1 °F 30% 29.90 in 10.0 mi SSE 6.9 mph 16.1 mph N/A   Clear
2:44 PM 89.6 °F - 48.2 °F 24% 30.12 in 10.0 mi Variable 6.9 mph - N/A Thunderstorm Clear
2:53 PM 90.0 °F - 48.9 °F 24% 29.88 in 10.0 mi ENE 6.9 mph - N/A   Clear
3:10 PM 89.6 °F - 48.2 °F 24% 30.11 in 10.0 mi Calm Calm - N/A Thunderstorm Partly Cloudy
3:33 PM 89.6 °F - 46.4 °F 22% 30.11 in 10.0 mi NNE 12.7 mph 25.3 mph N/A   Partly Cloudy
3:53 PM 84.0 °F - 46.0 °F 26% 29.88 in 10.0 mi NE 9.2 mph - N/A   Mostly Cloudy
4:11 PM 80.6 °F - 46.4 °F 30% 30.13 in 10.0 mi Calm Calm - N/A Thunderstorm Thunderstorm
4:36 PM 73.4 °F - 53.6 °F 50% 30.12 in 10.0 mi South 18.4 mph 31.1 mph 0.07 in Rain , Thunderstorm Light Thunderstorms and Rain
4:53 PM 78.1 °F - 52.0 °F 40% 29.90 in 10.0 mi SSW 21.9 mph 32.2 mph 0.07 in Rain , Thunderstorm Light Thunderstorms and Rain
5:07 PM 78.8 °F - 50.0 °F 36% 30.12 in 10.0 mi Variable 6.9 mph 23.0 mph 0.00 in   Overcast
5:53 PM 82.9 °F 81.9 °F 54.0 °F 37% 29.90 in 10.0 mi North 6.9 mph - 0.00 in   Partly Cloudy
6:53 PM 80.1 °F 80.2 °F 55.9 °F 43% 29.90 in 10.0 mi East 6.9 mph - N/A   Partly Cloudy
7:53 PM 78.1 °F - 54.0 °F 43% 29.91 in 10.0 mi East 5.8 mph - N/A   Clear
8:53 PM 72.0 °F - 59.0 °F 64% 29.92 in 10.0 mi Calm Calm - N/A   Clear
9:53 PM 71.1 °F - 57.9 °F 63% 29.94 in 10.0 mi South 3.5 mph - N/A   Partly Cloudy
10:53 PM 68.0 °F - 57.0 °F 68% 29.93 in 10.0 mi SSE 3.5 mph - N/A   Clear
11:53 PM 66.9 °F - 54.0 °F 63% 29.92 in 10.0 mi ESE 8.1 mph - N/A   Clear